Back to catalog

CZ-6A DEB

AlivePO
NORAD 60625·DEBRIS·🇨🇳 China

Launched Aug 6, 2024 from Taiyuan Satellite Launch Center

Loading…

Next Passes (next 24 hours)

TLE

FreshSource: Space-Track

Epoch: Sep 14, 2026, 10:59 UTC

1 60625U 24140AA  26257.45765064  .00004250  00000-0  10848-2 0  9993
2 60625  88.9916 260.7390 0063657  38.8079 321.7673 14.49164781110849

Track CZ-6A DEB in real time with AllMySat

Download on the App Store